User: anonymous   Login
Location: Bassano
(45.7667°N, 11.7333°E)
Time: 11:56:08
(UTC+00:00)
Language:

Cosmos 2221 - Orbit

View from above orbital plane
View from above orbital plane
View from above satellite
View from above satellite

Ground track
Ground track

The orbit data is extracted from the following two-line orbital elements,

1 22236U 92080A   20226.78760601  .00000144  00000-0  12946-4 0  9996
2 22236  82.5062  49.4743 0017875 128.2530 232.0300 14.87939216498843
Epoch (UTC): 13 August 2020 18:54:09
Eccentricity: 0.0017875
inclination: 82.5062°
perigee height: 592 km
apogee height: 617 km
right ascension of ascending node: 49.4743°
argument of perigee: 128.2530°
revolutions per day: 14.87939216
mean anomaly at epoch: 232.0300°
orbit number at epoch: 49884

The dashed part of the orbit path shows where the satellite is in the earth's shadow,  

DLR